Preview of NWS' New Version of Forecast
This preview is not operational and should not be used for support decisions.

Regional Weather Roundup (RWR)

Issued by National Weather Service (NWS)

                            
000
ASUS43 KBIS 210802
RWRND 

NORTH DAKOTA REGIONAL WEATHER ROUNDUP
NATIONAL WEATHER SERVICE BISMARCK ND
300 AM CDT SAT SEP 21 2019

NOTE: "FAIR" INDICATES FEW OR NO CLOUDS BELOW 12,000 FEET WITH NO
SIGNIFICANT WEATHER AND/OR OBSTRUCTIONS TO VISIBILITY.


NDZ001>003-009>011-017-210900-
NORTHWEST NORTH DAKOTA
  
CITY           SKY/WX    TMP DP  RH WIND       PRES   REMARKS
WILLISTON      CLOUDY    57  53  86 N17G31    29.71R                  
MINOT          LGT RAIN  63  61  93 W8        29.63F                  
$$
 
NDZ018>021-031>035-040>046-210900-
SOUTHWEST NORTH DAKOTA
  
CITY           SKY/WX    TMP DP  RH WIND       PRES   REMARKS
BISMARCK       LGT RAIN  64  62  93 NE10      29.63R                  
DICKINSON      LGT RAIN  60  59  96 NW7       29.70F                  
GARRISON         N/A     61  61 100 NW5       29.66R                  
HETTINGER ARPT LGT RAIN  59  58  96 N10       29.70F                  
$$
 
NDZ004>008-012>016-024-026-027-054-210900-
NORTHEAST NORTH DAKOTA
  
CITY           SKY/WX    TMP DP  RH WIND       PRES   REMARKS
GRAND FORKS    LGT RAIN  64  61  90 S7        29.65F                  
GRND FRKS AFB  LGT RAIN  63  63 100 S5        29.64F                  
DEVILS LAKE    LGT RAIN  62  61  96 S9        29.64F                  
$$
 
NDZ022-023-025-028>030-036>039-047>053-210900-
SOUTHEAST NORTH DAKOTA
  
CITY           SKY/WX    TMP DP  RH WIND       PRES   REMARKS
FARGO          CLOUDY    76  67  73 S20G31    29.66F                  
JAMESTOWN      HVY RAIN  61  60  97 E12G20    29.67F FOG              
$$